Vorticity
3 4 5 5 4 4 4 6 5 3 6 5 6 5 6 5 2 10 19 14 12 8 7 15 9 8 12 16 12 9 12 10 7
6 4 4 3 4 6 6 6 5 6 6 3 4 8 6 7 2 5 13 9 -1 11 12 12 19 1 -6 -6 -3 -1 -1 -1 -3
5 5 5 5 3 4 4 4 5 4 4 4 5 6 7 7 3 2 3 7 6 8 8 3 -10 -6 -1 3 2 1 -0 0 3
11 10 5 7 13 3 2 -0 5 9 6 6 5 5 8 8 3 3 -4 -1 9 7 11 4 -2 2 3 0 8 12 11 10 9
14 11 1 -1 -3 15 5 -3 3 -5 5 7 6 5 5 8 8 3 -1 5 5 4 11 16 10 -6 7 3 4 -2 1 3 2
9 13 16 12 10 1 3 9 8 8 9 -2 3 6 5 7 7 6 3 -0 7 11 6 -0 6 -13 -7 -4 1 2 3 2 7
12 11 11 15 19 14 8 1 14 8 4 9 5 7 7 3 7 5 5 1 7 4 6 8 15 9 2 4 6 5 6 12 12
10 12 11 11 13 14 17 15 12 5 5 3 8 0 14 4 3 6 4 10 7 7 4 7 6 13 15 10 13 8 14 10 11
6 7 10 10 9 10 14 16 16 15 14 8 7 17 -1 16 3 9 7 11 8 -0 5 5 3 8 15 6 4 4 6 1 13
7 5 5 8 9 8 7 11 14 18 16 12 14 3 14 3 9 5 2 -1 10 6 -5 6 4 10 5 4 5 4 2 5 12
9 9 6 5 9 10 8 6 7 10 17 16 13 14 5 -13 -21 31 4 5 5 8 2 -2 11 7 6 3 3 2 4 6 6
9 10 14 6 7 9 10 8 7 6 8 12 14 16 21 14 53 -22 5 -19 11 2 5 6 8 8 3 7 5 -3 6 4 4
11 13 16 15 7 8 10 10 8 8 8 6 7 13 14 13 18 10 7 -9 34 19 16 55 9 6 6 11 -2 5 3 2 -3
8 6 5 13 22 11 7 11 11 7 9 10 8 7 7 7 22 42 46 14 -15 17 31 -7 60 18 -1 9 6 6 8 4 -1
11 5 6 12 1 27 12 11 -5 5 -5 6 12 11 9 6 4 15 5 34 24 -15 12 12 10 37 37 -15 -3 20 3 -14 5
10 10 14 4 2 9 10 24 33 -1 14 -11 0 6 13 8 9 14 3 12 18 -8 29 -5 -1 -6 -4 25 2 -23 -23 28 29
6 8 11 9 12 6 5 6 6 7 26 3 11 21 -5 9 11 6 17 -1 25 37 5 -14 -18 7 19 -27 42 1 2 -27 -0
13 17 21 10 9 11 13 7 9 5 6 8 20 6 16 4 13 9 7 17 7 6 20 -5 7 4 25 8 -5 5 2 2 17
14 11 11 15 17 14 8 11 12 12 7 8 6 14 15 14 3 12 14 7 20 7 6 2 4 15 18 11 7 -0 -4 4 1
13 15 14 13 13 7 18 14 10 11 11 10 12 6 9 13 15 8 4 18 10 15 18 10 10 5 15 15 6 4 3 10 13
Height
3145 3144 3143 3142 3142 3142 3141 3141 3140 3139 3138 3138 3138 3138 3136 3135 3135 3135 3134 3134 3135 3136 3136 3137 3138 3139 3140 3142 3142 3144 3146 3147 3148
3141 3140 3139 3138 3137 3136 3136 3136 3136 3136 3135 3134 3134 3133 3133 3132 3132 3132 3131 3132 3132 3132 3134 3135 3137 3138 3139 3140 3141 3143 3144 3145 3146
3136 3136 3134 3133 3132 3131 3130 3129 3130 3130 3130 3130 3129 3128 3128 3128 3128 3129 3129 3130 3130 3131 3131 3133 3133 3135 3137 3138 3139 3140 3142 3142 3143
3130 3129 3129 3127 3126 3125 3125 3124 3123 3123 3124 3124 3124 3123 3123 3123 3123 3125 3126 3127 3127 3128 3127 3129 3130 3132 3133 3134 3135 3136 3137 3138 3139
3124 3123 3122 3121 3120 3119 3118 3117 3118 3117 3117 3117 3118 3118 3118 3118 3118 3120 3122 3123 3123 3124 3125 3124 3124 3126 3129 3130 3132 3133 3134 3134 3135
3117 3115 3114 3113 3112 3112 3111 3109 3109 3109 3110 3110 3110 3110 3112 3111 3112 3114 3116 3117 3117 3119 3120 3118 3121 3120 3123 3126 3128 3128 3129 3130 3130
3111 3108 3107 3105 3105 3103 3102 3102 3101 3101 3101 3102 3101 3101 3104 3104 3106 3106 3108 3110 3111 3112 3114 3114 3115 3117 3118 3120 3122 3123 3124 3125 3126
3104 3102 3100 3098 3096 3094 3092 3092 3092 3092 3093 3094 3093 3094 3093 3095 3098 3099 3100 3101 3104 3105 3106 3108 3109 3111 3113 3115 3116 3118 3119 3120 3121
3097 3095 3093 3091 3089 3086 3084 3083 3082 3082 3083 3084 3083 3084 3081 3082 3087 3088 3093 3092 3096 3098 3100 3101 3104 3106 3108 3109 3110 3113 3115 3116 3117
3090 3087 3085 3083 3081 3078 3077 3075 3073 3072 3072 3073 3074 3074 3074 3074 3073 3076 3080 3083 3086 3088 3091 3093 3096 3099 3101 3103 3105 3107 3109 3112 3112
3082 3079 3077 3075 3073 3070 3069 3067 3066 3064 3063 3063 3063 3064 3064 3061 3064 3064 3069 3073 3077 3079 3082 3086 3088 3091 3094 3096 3099 3102 3104 3106 3109
3072 3070 3067 3066 3064 3062 3060 3059 3057 3056 3055 3055 3054 3054 3054 3055 3056 3052 3057 3060 3065 3070 3074 3077 3078 3082 3086 3089 3092 3095 3098 3101 3104
3064 3061 3058 3055 3054 3052 3051 3050 3049 3047 3046 3046 3046 3045 3044 3046 3048 3047 3046 3050 3055 3056 3056 3060 3068 3072 3078 3082 3085 3088 3091 3095 3098
3055 3052 3049 3045 3044 3043 3042 3041 3039 3038 3037 3037 3038 3037 3037 3037 3039 3041 3040 3041 3040 3045 3050 3054 3056 3061 3068 3074 3069 3079 3083 3087 3091
3045 3043 3040 3036 3034 3032 3031 3030 3030 3029 3027 3028 3028 3029 3030 3030 3031 3032 3033 3032 3037 3042 3046 3050 3054 3054 3059 3064 3067 3062 3072 3077 3083
3035 3032 3030 3027 3025 3024 3021 3019 3019 3020 3017 3016 3019 3021 3022 3022 3024 3024 3027 3031 3034 3036 3040 3045 3048 3052 3053 3055 3060 3059 3055 3059 3074
3024 3021 3018 3016 3014 3014 3012 3011 3010 3010 3008 3007 3008 3011 3015 3014 3016 3018 3020 3024 3026 3029 3033 3036 3040 3046 3051 3053 3055 3059 3062 3065 3066
3014 3010 3008 3006 3003 3002 3001 3002 3001 3001 3002 3002 3001 3002 3003 3008 3009 3010 3014 3017 3020 3022 3025 3030 3035 3041 3044 3047 3050 3052 3056 3058 3061
3004 3000 2996 2995 2992 2992 2990 2990 2991 2991 2992 2995 2994 2994 2996 2999 3003 3004 3006 3010 3013 3017 3019 3025 3030 3033 3036 3041 3044 3048 3052 3055 3057
2995 2990 2986 2984 2982 2981 2979 2979 2980 2981 2981 2983 2987 2987 2988 2991 2993 2996 3000 3003 3007 3009 3012 3017 3021 3025 3028 3033 3037 3042 3046 3049 3051